Simultaneous Nadir Overpasses (SNOs) Predictions

Prediction of SNOs between NOAA-19 and NPP Satellite Orbit:

Table of predicted SNOs for the next 14.0 days since TLE Epoch: 11/29/2013
Index Date (NOAA-19) Time (NOAA-19) Lat,Lon (NOAA-19) SZA (NOAA-19 ) Date (NPP) Time (NPP) Lat,Lon (NPP) SZA (NPP ) Distance(km) Time Diff (sec)
1 12/06/2013 21:06:39 -80.97, -10.11 73.27 12/06/2013 21:07:44 -80.97, -10.18 73.29 1.13 65
2 12/06/2013 21:57:38 80.97, 157.14 106.75 12/06/2013 21:58:29 80.97, 157.19 106.71 1.00 51
3 12/06/2013 22:48:43 -80.97, -35.57 73.26 12/06/2013 22:49:14 -80.97, -35.54 73.28 0.52 31
4 12/06/2013 23:39:42 80.97, 131.68 106.75 12/06/2013 23:39:59 80.97, 131.83 106.72 2.49 17
5 12/07/2013 00:30:46 -80.96, -60.66 73.31 12/07/2013 00:30:43 -80.95, -60.54 73.33 2.07 3
6 12/07/2013 01:21:43 80.93, 107.34 106.59 12/07/2013 01:21:27 80.94, 107.19 106.62 2.55 16
7 12/07/2013 02:12:48 -80.93, -85.38 73.41 12/07/2013 02:12:12 -80.94, -85.55 73.37 2.93 36
8 12/07/2013 03:03:46 80.92, 82.25 106.54 12/07/2013 03:02:56 80.92, 82.19 106.57 1.04 50




NCC Satellite Simultaneous Nadir Overpasses (SNOs) Prediction Service
